Simultaneous Nadir Overpasses (SNOs) Predictions

Prediction of SNOs between GOES-14 and NOAA-20 Satellite Orbit:

Table of predicted SNOs for the next 14.0 days since TLE Epoch: 6/1/2024
Index Date Time (GOES-14) GOES-14 Lat,Lon NOAA-20 Lat,Lon Distance(km) Time Diff (sec)
1 06/02/2024 08:43:21 0.05,-108.60 0.35,-109.90 148.50 80
2 06/03/2024 08:27:13 0.06,-108.60 -0.65,-105.36 368.68 80
3 06/04/2024 20:46:27 -0.03,-108.58 -0.47,-110.66 236.74 80
4 06/05/2024 20:30:19 -0.04,-108.58 0.53,-106.12 280.77 80
5 06/07/2024 08:49:24 0.01,-108.59 0.64,-111.38 318.58 80
6 06/08/2024 08:33:16 0.02,-108.58 -0.36,-106.84 198.48 80
7 06/09/2024 20:52:28 0.01,-108.56 -0.81,-112.13 407.88 80
8 06/10/2024 20:36:21 -0.01,-108.56 0.19,-107.59 109.94 80
9 06/12/2024 08:55:26 -0.02,-108.58 0.91,-112.86 487.85 80
10 06/13/2024 08:36:38 -0.00,-108.57 -0.04,-108.31 29.84 80
